GW0802 Weather Reports


time (UTC)temp
C
wind
direction
speed
KPH
gust
KPH
rain 1hr
cm
rain 24hr
cm
rain mn
cm
humidity
%
barometer
mb
20260506024505 15 96 1.6 8.0 0.00 0.00 0.00 70 1012.2
20260506023003 16 295 1.6 6.4 0.00 0.00 0.00 67 1011.7
20260506021502 17 329 1.6 8.0 0.00 0.00 0.00 65 1011.4
20260506020004 17 231 4.8 16.1 0.00 0.00 0.00 65 1011.2
20260506014509 18 84 1.6 9.7 0.00 0.00 0.00 63 1011.1
20260506013007 18 57 1.6 9.7 0.00 0.00 0.00 62 1010.9
20260506011504 18 283 4.8 8.0 0.00 0.00 0.00 62 1010.8
20260506010007 18 198 1.6 4.8 0.00 0.00 0.00 60 1010.6
20260506004513 20 127 1.6 6.4 0.00 0.00 0.00 58 1010.5
20260506003008 20 249 4.8 11.3 0.00 0.00 0.00 57 1010.6
20260506001506 21 272 6.4 12.9 0.00 0.00 0.00 57 1010.4
20260506000016 21 233 1.6 8.0 0.00 0.00 0.00 56 1010.4
20260505234513 23 275 0.0 8.0 0.00 0.00 0.00 50 1010.2
20260505233008 23 264 4.8 12.9 0.00 0.03 0.00 46 1010.3
20260505231503 23 255 6.4 9.7 0.00 0.03 0.00 41 1010.4
20260505230003 23 285 8.0 12.9 0.00 0.03 0.00 42 1010.4
20260505224512 23 285 3.2 8.0 0.00 0.05 0.00 47 1010.4
20260505223002 22 260 0.0 9.7 0.00 0.05 0.00 42 1010.6
20260505221503 22 269 4.8 11.3 0.00 0.05 0.00 51 1010.8
20260505220013 22 286 4.8 14.5 0.00 0.05 0.00 41 1010.8
20260505214509 22 259 3.2 11.3 0.00 0.05 0.00 44 1010.9
20260505213006 22 288 4.8 9.7 0.00 0.05 0.00 44 1010.9
20260505211502 22 243 3.2 6.4 0.00 0.05 0.00 42 1011.0
20260505210006 21 248 4.8 12.9 0.00 0.05 0.00 46 1011.1
20260505204505 21 255 3.2 11.3 0.00 0.05 0.00 47 1011.2
20260505203005 20 288 6.4 9.7 0.00 0.05 0.00 53 1011.4
20260505201506 20 267 3.2 11.3 0.00 0.05 0.00 52 1011.5
20260505200010 19 257 3.2 9.7 0.00 0.05 0.00 52 1011.7
20260505194516 19 249 4.8 8.0 0.00 0.05 0.00 56 1012.1
20260505193003 18 291 1.6 9.7 0.00 0.05 0.00 56 1012.2
20260505191506 18 259 1.6 8.0 0.00 0.05 0.00 60 1012.4
20260505190022 17 253 4.8 8.0 0.00 0.05 0.00 61 1012.4
20260505184511 17 264 1.6 9.7 0.00 0.05 0.00 59 1012.5
20260505183005 16 248 3.2 9.7 0.00 0.05 0.00 63 1012.8
20260505181502 16 248 4.8 8.0 0.00 0.05 0.00 62 1012.8
20260505180005 16 195 3.2 8.0 0.00 0.05 0.00 62 1012.9
20260505174529 15 281 0.0 8.0 0.00 0.05 0.00 63 1012.9
20260505173016 15 307 6.4 9.7 0.00 0.05 0.00 65 1012.8
20260505171506 14 285 4.8 8.0 0.00 0.05 0.00 70 1012.9
20260505170005 13 266 4.8 8.0 0.00 0.05 0.00 67 1013.1
20260505164509 13 300 0.0 3.2 0.00 0.05 0.00 70 1013.1
20260505163010 11 275 1.6 4.8 0.00 0.05 0.00 73 1013.2
20260505161516 11 266 0.0 3.2 0.00 0.05 0.00 75 1013.2
20260505153008 10 254 0.0 0.0 0.00 0.05 0.00 75 1013.1
20260505151511 10 255 0.0 0.0 0.00 0.05 0.00 76 1013.0
20260505124503 8 135 0.0 0.0 0.00 0.05 0.00 83 1012.2
20260505123004 8 135 0.0 0.0 0.00 0.05 0.00 83 1012.2
20260505121505 8 135 0.0 1.6 0.00 0.05 0.00 81 1012.2
20260505120008 8 107 0.0 0.0 0.00 0.05 0.00 82 1012.2
20260505111509 8 127 0.0 0.0 0.00 0.05 0.00 83 1012.3
20260505101520 8 162 0.0 4.8 0.00 0.05 0.00 81 1012.3
20260505100004 8 81 0.0 0.0 0.00 0.05 0.00 82 1012.3
20260505094504 8 88 0.0 0.0 0.00 0.05 0.00 82 1012.3
20260505093011 8 125 0.0 0.0 0.00 0.05 0.00 82 1012.5
20260505091513 8 270 0.0 0.0 0.00 0.05 0.00 83 1012.5
20260505090037 8 287 0.0 0.0 0.00 0.05 0.00 84 1012.6
20260505084503 8 4 0.0 0.0 0.00 0.05 0.00 82 1012.6
20260505083011 8 4 0.0 0.0 0.00 0.05 0.00 82 1012.7
20260505081512 8 271 0.0 1.6 0.00 0.05 0.00 81 1012.6
20260505080029 8 236 0.0 0.0 0.00 0.05 0.00 82 1012.7
20260505074502 8 236 0.0 1.6 0.00 0.05 0.00 81 1012.8
20260505073007 8 262 0.0 11.3 0.00 0.05 0.00 79 1012.8
20260505071509 8 263 0.0 9.7 0.00 0.05 0.00 79 1012.9
20260505070003 8 274 1.6 8.0 0.00 0.05 0.00 80 1012.8
20260505064504 8 238 1.6 6.4 0.00 0.05 0.05 81 1012.9
20260505063005 8 143 0.0 1.6 0.00 0.05 0.05 81 1013.2
20260505061510 9 244 3.2 6.4 0.00 0.05 0.05 78 1013.2
20260505060014 9 295 0.0 1.6 0.00 0.05 0.05 77 1013.4
20260505054503 9 251 0.0 6.4 0.00 0.05 0.05 76 1013.1
20260505053007 10 272 0.0 8.0 0.00 0.05 0.05 75 1013.2
20260505051504 10 295 3.2 8.0 0.00 0.05 0.05 75 1013.2
20260505041503 10 6 0.0 0.0 0.00 0.05 0.05 76 1012.5
20260505040004 10 68 0.0 0.0 0.00 0.05 0.05 75 1012.5
20260505034510 10 345 0.0 1.6 0.00 0.05 0.05 75 1012.3
20260505033014 10 312 0.0 1.6 0.00 0.05 0.05 74 1012.2
20260505031518 10 97 0.0 1.6 0.00 0.05 0.05 74 1012.2
20260505030004 10 334 1.6 6.4 0.00 0.05 0.05 73 1012.1